Theta_e
286 286 286 285 285 285 285 285 285 285 284 284 284 283 283 283 283 284 285 282 282 282 283 282 282 282 282 282 281 281 281 281 281 280 280 280 279 279 279 279 279 279 278 279 280 281 281 282 282 282 282 282 282 283 283 283 283 283 283 283 284 284 285 285 285 285 285 285 285 285 285 285 286 286
286 285 285 285 285 285 285 285 284 284 284 284 284 283 283 282 282 282 282 281 282 282 282 282 282 282 281 281 281 281 281 280 280 280 280 280 279 279 279 279 279 278 277 278 279 280 281 281 281 281 282 282 282 282 282 282 282 282 282 282 283 283 284 284 284 284 284 284 285 285 284 284 285 285
285 285 285 285 285 284 284 284 284 284 284 284 283 283 282 282 281 281 280 281 282 282 282 282 282 281 281 281 281 280 280 280 280 280 279 279 279 279 279 279 279 278 277 278 279 280 280 281 281 281 281 281 281 281 281 281 282 282 281 282 283 283 283 283 283 283 283 284 284 284 284 284 284 285
284 284 284 284 284 284 284 284 284 284 283 283 283 282 282 281 281 280 279 280 280 281 281 281 281 281 280 281 280 280 280 280 279 279 279 279 279 279 279 279 278 278 277 277 278 279 280 280 280 280 280 280 280 280 280 281 281 281 281 282 282 282 282 282 282 282 282 283 283 283 283 283 284 284
284 284 284 284 284 284 284 284 284 283 283 283 282 282 282 281 281 280 279 279 278 279 280 280 280 280 280 280 280 280 280 279 279 279 279 279 279 279 278 278 278 277 276 277 278 279 279 279 279 279 279 279 279 279 279 280 280 280 281 281 281 281 281 281 281 281 281 281 282 282 282 283 283 284
284 283 283 283 283 283 283 283 283 283 283 282 282 282 281 281 281 280 279 278 278 278 279 279 280 280 279 279 279 279 279 279 279 279 278 278 278 278 278 278 278 277 276 277 278 277 278 278 278 278 278 278 278 278 279 279 279 280 280 280 280 279 279 280 280 280 280 281 281 282 282 283 283 284
284 283 283 283 283 283 283 283 283 282 282 282 281 281 281 281 280 280 279 278 278 277 278 278 278 279 279 279 279 279 278 278 278 278 278 278 278 278 277 277 277 277 276 276 277 276 276 277 277 276 276 276 277 277 278 278 279 279 279 279 278 278 279 279 279 280 280 280 281 282 282 282 282 283
284 284 283 283 283 283 283 283 282 282 282 281 281 281 281 280 280 279 278 278 278 277 277 277 277 277 278 278 278 278 278 278 278 278 278 278 277 277 276 276 277 277 276 275 275 275 275 275 275 275 275 275 275 276 277 277 278 278 278 278 277 278 279 279 279 279 280 280 281 281 281 281 282 282
284 284 283 283 283 283 283 283 282 282 282 281 281 281 281 280 279 279 278 278 277 277 276 277 277 277 277 277 277 277 277 277 278 278 278 277 277 276 276 276 276 276 275 274 274 274 274 274 273 274 274 274 275 275 276 276 277 277 276 276 277 277 278 279 279 279 279 280 280 280 280 281 282 282
284 283 283 283 283 283 283 283 282 282 281 281 281 281 280 280 279 278 278 278 277 277 277 276 276 277 277 277 277 277 276 276 277 278 278 277 276 276 275 276 276 276 275 274 274 274 274 273 273 274 274 274 274 275 275 275 275 275 275 275 276 277 278 278 279 279 279 279 279 280 280 280 281 281
284 283 283 283 283 283 283 283 282 282 281 281 281 280 280 279 279 278 278 277 277 277 277 276 276 277 277 276 276 276 276 275 276 277 277 277 276 275 275 275 276 276 275 273 273 274 274 274 273 273 274 274 274 274 274 274 273 273 274 275 276 277 277 278 278 278 278 279 279 279 279 280 280 281
284 284 283 283 283 283 283 282 282 281 281 281 280 280 280 279 278 278 277 277 277 277 276 276 276 276 276 276 276 276 275 275 276 276 275 275 275 274 274 274 275 275 275 273 273 274 274 274 273 273 273 273 274 274 274 274 273 273 274 275 276 277 277 277 277 277 278 278 278 279 279 279 279 280
284 284 284 283 283 282 282 282 282 281 281 280 280 280 279 279 278 278 277 277 277 276 276 276 276 275 275 275 275 275 275 275 275 275 275 275 274 274 274 274 274 274 274 274 273 273 274 274 273 272 273 273 273 274 274 274 273 273 274 275 276 276 276 276 277 277 277 278 278 278 278 279 279 279
284 284 284 283 283 282 282 282 281 281 281 280 280 280 279 279 278 277 277 277 277 276 276 276 275 274 274 275 275 275 275 275 275 275 275 274 274 274 274 274 274 273 273 273 273 273 273 273 272 272 272 273 273 274 274 273 273 273 274 275 275 276 276 276 276 277 277 277 277 277 278 278 278 279
285 285 284 284 283 282 282 282 281 281 280 280 280 280 279 279 278 277 277 277 277 276 276 276 275 274 275 275 275 275 275 275 275 275 275 274 274 274 274 274 273 273 273 272 272 273 273 272 271 272 272 272 272 273 273 273 272 273 274 274 275 275 276 276 276 276 276 276 276 277 277 277 278 278
285 285 284 284 283 283 283 282 282 281 280 280 279 279 279 279 278 278 277 277 277 277 276 276 275 275 275 275 275 275 275 275 275 275 274 274 274 274 274 273 273 273 272 271 271 272 273 272 271 271 272 271 272 273 273 273 272 272 273 274 274 275 275 275 275 275 276 276 276 276 277 277 278 278
286 285 285 284 284 283 283 283 282 281 280 279 279 278 278 278 278 278 278 278 278 277 277 276 276 276 276 275 275 275 275 275 275 275 274 274 274 274 273 273 272 272 272 271 270 271 272 272 271 271 272 271 270 272 273 273 272 272 273 273 274 274 275 275 275 275 275 275 276 276 276 276 277 277
286 285 285 284 284 284 284 283 283 282 281 280 279 278 278 278 279 279 279 279 278 278 277 277 277 277 276 276 276 275 275 275 275 275 275 274 274 273 273 272 272 271 271 270 269 269 271 272 271 271 271 270 269 271 272 272 272 271 272 273 273 274 274 274 274 274 274 275 275 275 275 276 276 276
286 285 284 284 284 284 284 284 283 282 281 280 279 278 278 278 278 278 278 278 278 278 278 277 277 277 276 276 276 275 275 275 275 275 274 274 273 273 272 271 271 271 270 270 269 268 270 272 271 270 271 270 269 270 271 272 272 271 271 272 272 272 273 273 273 273 274 274 274 274 275 275 275 276
286 285 284 284 285 285 285 284 283 282 281 280 279 278 278 278 278 278 278 277 277 277 277 277 277 276 276 276 275 275 275 276 276 275 274 273 273 272 271 270 270 269 270 270 269 267 269 271 270 269 270 269 268 269 270 272 271 271 270 271 271 271 272 272 273 273 273 273 273 273 274 274 275 275
285 285 284 284 285 285 285 284 284 282 280 280 279 278 278 278 278 278 278 278 277 276 276 276 275 275 275 275 275 276 277 277 276 275 274 273 272 271 270 268 269 268 268 270 269 267 268 269 268 268 269 269 268 268 269 270 271 270 270 270 270 271 271 271 272 272 272 272 272 273 273 274 274 275
285 284 284 285 284 285 285 284 284 282 280 279 279 279 278 278 278 279 280 279 277 277 276 275 275 275 276 276 276 277 278 277 276 275 274 273 272 271 269 268 268 268 268 269 269 268 268 268 267 267 268 268 268 268 268 269 270 270 270 269 270 270 270 270 271 271 271 271 272 272 273 273 274 274
285 284 284 284 284 285 285 284 283 282 280 279 279 279 278 277 278 280 281 279 278 277 276 276 275 275 276 276 277 277 278 277 276 275 274 273 271 270 269 268 267 267 267 269 269 268 267 267 267 266 266 266 268 268 268 268 268 269 269 269 269 270 270 269 270 270 270 270 271 271 272 273 273 274
284 284 284 284 284 284 283 282 282 281 279 278 279 278 277 277 279 280 280 278 277 277 276 276 276 275 275 275 276 277 277 277 276 275 274 273 271 270 269 268 267 266 267 269 269 267 267 266 266 266 265 265 266 267 267 267 267 268 268 268 268 269 269 269 269 269 269 269 270 270 271 272 273 274
283 283 283 284 284 283 282 282 281 280 280 279 279 278 278 279 279 279 278 277 277 276 275 275 275 275 275 275 275 275 276 275 275 275 274 273 271 270 269 268 267 266 267 269 268 267 266 266 265 265 265 264 265 266 266 266 266 267 267 267 267 268 268 268 268 268 268 268 268 269 270 271 272 273
282 282 282 282 282 281 281 281 281 280 280 280 279 279 279 279 279 278 277 277 276 275 275 275 275 275 275 275 275 275 275 275 275 274 274 272 271 270 269 268 267 266 267 268 268 266 266 265 265 264 264 264 264 264 265 266 266 267 267 266 267 268 268 268 267 268 268 268 268 268 269 271 271 272
282 282 281 281 281 281 280 280 280 280 280 279 279 279 279 280 280 279 279 278 277 276 276 275 275 275 275 275 275 275 275 275 275 274 273 272 271 269 268 268 267 266 267 268 267 266 265 265 265 265 264 264 264 264 264 265 266 266 266 266 266 268 269 268 267 267 267 267 267 268 269 269 270 271
281 281 281 281 281 281 281 280 280 280 280 279 279 279 279 280 280 280 280 279 278 277 276 276 275 275 275 275 276 276 275 275 274 273 272 272 271 269 268 268 267 267 267 267 267 267 266 265 265 265 264 264 264 264 264 265 265 265 265 265 266 267 268 268 267 267 267 267 267 268 269 269 269 270
280 280 280 280 280 280 280 280 279 279 279 279 279 279 279 279 279 280 280 280 279 278 277 276 275 275 275 275 275 275 275 274 273 273 272 272 271 269 268 267 267 267 267 267 267 267 267 266 265 265 264 264 264 264 264 264 265 265 265 264 265 266 268 268 267 267 267 267 268 268 269 269 269 269
280 279 279 279 279 280 280 279 279 279 279 278 278 278 279 279 279 279 279 279 279 278 277 276 276 276 276 275 275 274 273 273 273 272 272 271 270 269 268 267 266 267 267 267 267 267 267 267 265 264 264 264 264 264 264 264 264 264 264 264 264 265 267 267 266 266 266 267 268 268 268 268 269 269
279 279 279 278 278 278 278 278 278 279 279 278 278 278 278 278 278 278 278 278 278 278 277 276 276 276 275 274 273 273 273 272 272 272 271 270 269 269 267 266 266 267 267 268 268 268 267 267 265 264 263 263 263 263 263 264 264 263 263 264 264 264 265 266 266 266 266 267 267 268 268 268 269 269
277 277 277 277 276 276 276 276 277 277 278 278 278 277 277 277 277 277 277 277 277 277 277 276 275 275 274 273 273 272 272 272 272 271 270 269 269 268 266 265 265 266 267 267 268 268 267 267 265 264 263 263 263 263 263 263 263 263 263 264 265 265 265 265 265 266 266 266 267 267 267 268 269 269
277 276 276 275 275 274 274 275 275 276 277 277 277 277 276 276 276 276 276 276 276 276 276 276 275 274 273 273 272 272 271 272 271 270 269 269 268 267 265 265 265 265 266 266 267 267 267 267 266 265 264 264 263 263 263 263 263 263 263 264 265 265 265 265 265 266 266 266 267 267 268 268 269 269
277 276 276 275 275 275 274 275 275 276 276 276 276 276 276 276 276 275 275 275 275 275 275 275 274 274 273 272 272 271 271 271 271 270 269 268 267 266 265 264 264 265 265 265 265 266 266 266 265 265 265 264 264 264 264 264 263 263 264 264 264 265 265 265 265 265 266 266 266 267 268 268 268 269
277 276 276 276 276 275 275 275 275 275 275 276 276 276 275 275 275 275 275 275 275 275 274 274 273 272 272 271 271 271 271 271 270 269 268 267 266 265 265 264 264 264 264 264 264 265 264 264 263 263 263 263 263 263 265 266 264 264 264 264 264 264 265 265 265 265 265 266 266 267 268 268 268 268
278 277 277 276 276 276 276 276 276 275 275 275 275 275 275 275 274 274 274 274 274 274 273 273 272 272 271 271 271 270 270 270 269 268 267 267 266 265 264 264 264 264 264 263 264 264 263 263 262 262 262 262 261 261 264 265 265 263 263 264 264 264 264 264 264 265 265 266 266 267 268 268 268 268
278 277 277 276 275 275 275 274 274 274 274 274 274 274 274 274 274 273 273 273 273 273 272 272 272 271 270 270 270 269 269 269 268 267 266 266 265 265 264 264 264 263 263 263 263 263 263 262 262 262 261 261 261 261 262 263 263 263 263 263 263 264 264 264 265 265 266 266 267 267 267 267 267 267
275 274 274 273 272 272 272 271 271 271 271 271 271 271 271 271 272 272 272 272 272 272 271 271 271 270 270 269 269 268 268 267 267 266 266 265 265 264 264 264 264 263 263 262 262 263 263 262 262 262 261 261 261 261 261 262 262 263 263 263 262 263 264 264 265 266 266 266 266 266 266 267 267 267
272 271 270 270 269 269 269 269 269 269 269 269 269 269 269 269 269 270 270 270 270 270 270 270 270 269 269 268 268 268 267 266 266 266 266 265 264 264 264 263 263 263 262 262 262 262 263 262 262 262 261 261 261 261 261 261 261 263 264 264 263 263 264 265 265 266 266 266 266 266 266 266 267 268
270 269 269 268 268 267 267 267 267 266 266 266 266 266 266 267 267 267 267 268 268 268 268 268 268 268 267 267 267 267 266 266 265 265 265 265 264 264 263 263 262 262 261 261 261 262 262 262 262 261 261 261 261 261 261 261 261 262 265 265 264 264 264 265 265 265 265 265 266 266 266 267 268 268
268 268 267 267 267 266 266 265 265 264 264 264 263 263 263 263 264 264 265 265 266 266 266 266 266 266 266 266 266 266 265 265 265 265 264 264 263 263 263 262 262 261 261 260 261 261 262 262 261 261 260 261 261 260 260 261 261 262 263 265 265 265 264 264 265 265 265 265 265 266 267 267 268 269
266 266 265 265 265 264 264 264 263 263 262 262 262 262 262 262 262 262 263 263 264 264 264 264 264 265 265 265 265 265 265 265 265 264 264 263 263 263 262 261 261 261 261 260 260 261 261 261 261 261 261 261 260 260 260 261 261 261 262 263 265 265 265 265 264 264 265 265 266 266 267 268 268 268
264 264 264 264 263 263 263 263 262 262 262 262 261 261 261 261 261 261 262 262 262 263 263 263 263 263 263 263 263 263 263 263 263 263 263 263 262 262 261 261 261 261 261 260 260 260 261 261 261 261 260 261 260 260 260 260 261 261 261 262 262 264 265 266 265 265 265 266 265 266 267 267 268 268
263 263 263 263 263 263 262 262 262 262 262 261 261 261 261 261 261 261 261 261 261 261 262 262 262 262 262 262 262 262 262 262 262 262 262 262 262 261 261 261 261 261 260 260 259 260 260 261 261 260 260 261 261 260 260 261 261 261 261 261 261 262 264 265 265 266 267 266 266 265 266 267 267 267
262 262 262 262 262 262 262 262 262 262 261 261 261 261 261 261 261 261 261 261 260 260 261 261 261 261 261 261 261 261 261 261 261 261 261 261 261 260 260 260 260 260 260 259 259 259 259 260 260 260 260 260 261 261 260 260 260 260 260 260 261 262 263 263 263 263 265 266 266 265 265 266 266 266
Wind_Speed
13 14 13 13 12 12 11 9 8 7 6 6 6 5 6 7 5 2 1 5 8 8 8 7 6 8 11 13 15 17 19 21 21 22 23 24 24 23 22 21 20 21 21 21 21 21 22 24 26 27 28 29 30 32 32 33 35 36 37 36 36 36 37 37 38 38 37 37 37 37 37 37 37 37
13 13 13 12 12 11 11 9 9 8 7 7 8 8 8 8 8 6 3 4 8 9 8 8 8 11 14 15 16 17 19 20 22 22 23 23 24 23 22 22 22 22 23 21 20 21 23 24 26 27 28 28 29 31 32 33 35 37 37 37 36 36 36 37 38 37 37 37 37 37 37 37 37 38
13 13 13 13 12 11 11 10 9 9 9 9 10 10 10 10 10 10 7 3 6 9 8 9 11 14 16 16 17 18 19 20 22 22 22 23 22 22 22 23 23 24 24 21 19 21 23 24 25 26 27 28 29 30 32 34 36 38 38 38 38 37 36 36 37 37 35 35 36 37 38 38 37 36
13 13 13 13 12 12 11 10 10 10 10 11 12 12 12 12 11 12 11 9 11 12 11 12 15 16 17 18 18 19 20 21 22 22 22 22 21 21 22 23 23 24 24 20 19 22 23 24 25 26 27 28 29 32 33 34 35 36 37 37 37 37 36 35 35 35 34 35 36 37 37 37 36 36
14 14 14 14 13 12 11 11 10 11 12 13 13 13 13 13 13 13 14 15 16 16 15 14 15 17 18 19 18 20 22 23 23 23 23 22 21 21 22 23 23 24 23 19 19 22 23 24 24 25 27 29 31 32 33 33 34 34 35 35 35 36 36 36 35 35 34 34 35 35 35 35 35 35
16 16 16 15 14 13 12 12 12 12 14 14 15 15 15 14 15 15 16 17 16 17 17 16 16 17 18 19 19 20 23 24 24 25 24 23 21 21 22 24 24 24 23 19 19 23 23 23 24 25 28 30 31 31 31 32 32 32 33 33 34 34 35 35 35 33 33 33 33 34 34 33 34 35
17 17 17 17 15 14 13 13 13 14 15 16 16 16 16 16 16 16 17 18 17 17 18 17 16 17 18 19 20 20 22 24 25 26 25 23 22 21 22 24 24 24 22 19 20 24 24 22 23 27 30 31 31 30 31 31 31 32 32 32 33 33 33 33 33 34 34 34 34 35 36 35 34 34
18 18 18 18 16 15 14 14 15 16 16 17 17 17 17 17 17 18 19 19 18 17 18 18 18 18 19 20 20 21 23 24 24 25 25 24 23 21 22 24 25 24 22 20 22 25 25 24 25 29 32 31 31 31 30 30 31 32 32 32 33 33 33 34 35 36 36 35 35 36 38 38 37 35
18 18 18 18 17 16 16 16 17 17 17 18 18 19 19 19 19 19 19 20 19 19 21 22 22 21 21 21 21 20 22 25 27 26 25 23 22 23 23 24 24 24 24 23 24 26 29 29 29 31 32 31 31 33 32 31 31 32 32 32 33 33 34 35 36 35 35 36 37 37 37 36 37 37
18 18 18 18 18 18 18 18 18 19 18 19 20 20 21 20 20 20 21 20 20 20 22 23 23 23 22 22 22 20 19 23 26 27 27 24 21 22 25 26 25 25 26 25 24 28 32 33 32 33 32 31 32 33 34 33 32 32 32 32 33 34 34 35 35 35 36 36 36 37 38 36 35 35
19 19 19 19 19 19 19 19 19 19 19 20 21 21 21 21 21 21 22 21 21 21 22 23 23 24 23 22 22 20 19 20 20 20 25 28 26 24 24 24 26 28 27 24 25 30 34 35 34 33 32 31 32 34 35 35 35 34 32 32 33 34 34 35 35 35 35 36 35 36 37 38 36 34
20 20 20 20 20 20 20 20 20 20 20 21 21 22 22 22 22 23 23 22 22 22 22 23 23 23 23 23 22 20 19 18 17 14 17 24 29 29 24 21 24 27 27 27 29 33 35 36 35 34 33 32 33 35 37 37 37 34 32 32 33 34 35 35 34 34 34 35 36 36 35 35 36 35
21 21 22 22 21 21 21 21 21 21 21 22 23 23 23 23 24 24 24 23 23 22 22 24 22 22 23 23 20 19 17 16 16 15 16 20 25 27 26 23 20 22 26 31 35 36 36 37 36 34 33 33 34 36 38 39 38 34 32 33 34 34 35 34 34 34 34 35 35 35 36 35 35 35
22 23 23 23 23 22 22 22 23 23 23 23 24 23 23 24 25 25 25 24 24 23 23 24 21 20 23 22 18 18 18 15 14 14 16 20 23 22 23 23 19 19 25 33 39 40 36 35 35 34 33 33 35 37 39 39 37 33 32 33 33 33 34 34 35 35 34 34 34 34 35 35 35 34
23 24 25 25 24 24 24 24 24 24 24 25 25 24 25 25 25 26 26 25 25 24 24 24 22 21 25 24 18 17 17 15 14 14 15 18 19 16 16 18 19 21 27 33 40 42 37 33 33 34 33 33 35 36 38 39 37 32 31 32 33 33 33 34 35 36 35 34 35 34 34 34 34 34
24 26 27 26 25 25 25 26 25 25 26 26 26 25 25 25 26 26 26 26 25 25 24 25 25 25 25 24 20 17 16 14 13 14 15 16 15 13 12 15 20 26 30 33 37 41 38 32 33 34 33 34 35 35 36 38 36 32 31 32 32 32 33 34 34 35 35 35 34 34 34 34 34 34
27 29 29 27 26 25 26 27 27 27 28 27 27 26 24 24 25 24 24 24 25 25 24 26 28 27 25 24 22 16 14 14 14 15 17 16 15 15 15 18 24 30 31 30 32 37 37 32 33 36 36 35 35 34 36 37 35 32 30 30 31 32 33 34 34 34 34 34 34 34 33 33 33 33
30 31 30 29 27 26 26 27 28 28 29 29 28 27 26 27 26 25 24 23 24 25 25 27 30 29 25 24 23 18 15 17 18 19 20 18 17 20 22 24 28 31 28 24 23 29 34 33 34 37 38 37 36 34 35 35 33 31 30 28 31 33 34 34 33 33 34 33 33 33 33 33 33 33
33 33 32 30 28 27 28 29 29 29 30 30 30 29 30 30 30 30 30 29 28 29 29 31 32 30 27 25 23 19 18 19 21 21 20 18 19 23 27 28 29 27 24 18 14 22 33 34 33 37 39 39 38 35 33 33 31 30 28 29 32 34 33 33 33 32 32 33 32 33 33 33 33 32
36 35 34 33 30 30 31 31 30 30 30 31 31 31 32 32 32 34 34 32 32 33 33 34 35 34 31 28 25 21 18 19 21 20 19 18 20 24 28 29 26 20 18 18 16 22 32 31 29 36 41 40 39 37 31 29 30 31 31 32 35 35 32 32 33 31 31 32 33 33 33 33 33 33
38 38 37 35 34 33 33 33 32 32 31 32 32 32 33 33 35 36 35 33 34 35 34 35 35 34 33 30 25 22 19 18 19 18 19 21 22 23 23 23 22 17 17 21 18 18 25 25 25 34 41 39 38 35 28 26 31 35 36 36 36 36 33 31 31 32 31 32 33 33 33 33 33 32
40 40 40 38 37 37 36 35 35 34 32 32 34 34 34 34 37 38 36 34 35 34 33 33 33 31 29 27 24 23 23 23 22 22 24 25 23 22 21 21 24 23 20 18 13 12 19 23 23 28 36 38 36 29 21 26 35 39 39 39 38 37 36 33 32 32 32 32 32 32 33 32 31 30
42 42 42 41 40 40 39 38 38 37 34 33 35 36 34 35 39 41 38 36 35 33 32 32 32 31 29 27 26 28 28 27 26 26 28 27 24 24 25 23 21 17 12 9 9 13 20 22 18 18 21 25 29 28 24 29 38 40 38 38 38 39 38 37 36 35 33 32 32 32 32 31 30 28
43 44 44 43 43 42 41 40 38 37 34 33 34 35 34 37 42 41 37 35 34 32 31 31 30 30 30 29 29 30 31 31 30 29 29 28 26 25 26 25 20 15 13 13 15 18 20 19 18 18 14 10 19 32 38 36 36 37 37 36 37 40 40 40 41 39 35 32 31 30 30 30 29 28
43 44 44 44 43 41 39 38 36 35 32 29 30 34 37 40 41 38 36 35 32 29 30 29 28 28 28 28 30 31 32 32 31 30 28 28 26 25 25 25 24 24 24 21 18 17 19 20 22 24 19 14 18 30 40 41 36 32 32 33 36 40 42 41 41 40 38 35 33 31 29 29 28 27
43 44 44 43 41 39 38 38 36 36 34 30 31 34 36 36 34 33 34 34 31 29 29 28 28 28 29 30 31 32 33 33 30 27 26 25 25 25 25 25 26 27 27 22 18 18 22 24 24 22 21 21 23 25 31 38 37 33 31 33 37 41 43 41 40 40 38 37 35 33 29 27 27 27
42 42 42 42 40 38 38 38 37 37 37 35 35 36 34 32 30 29 31 32 31 30 29 29 30 31 31 33 33 33 34 33 28 24 22 22 23 24 24 24 25 26 25 22 19 20 22 25 25 24 22 24 26 23 24 31 36 34 33 36 39 41 41 40 38 37 35 36 37 33 29 27 26 28
40 40 41 41 40 39 39 38 37 37 37 36 35 35 34 32 31 31 32 33 32 31 31 31 33 34 34 34 34 35 34 30 25 21 20 21 22 23 23 23 24 24 22 20 19 20 22 23 24 23 22 23 24 22 23 30 36 34 33 36 40 40 39 37 36 34 34 37 35 30 26 27 27 29
40 41 41 39 37 36 36 35 35 35 34 33 31 31 30 30 30 31 32 32 31 31 32 32 33 34 34 34 35 34 31 26 22 20 19 20 22 22 23 23 23 22 20 19 19 19 20 21 21 20 20 22 24 24 25 30 36 35 32 34 39 40 37 34 34 34 35 34 30 26 25 27 27 27
36 38 38 36 33 32 32 31 32 34 34 33 32 31 30 30 30 30 29 29 30 32 33 32 32 33 33 33 32 30 28 25 22 19 19 20 21 21 22 23 24 22 19 18 18 18 18 19 19 18 20 21 23 25 26 29 34 37 35 34 35 36 34 34 35 35 33 29 27 27 27 27 26 25
30 32 33 33 33 32 31 30 31 32 32 31 31 30 29 29 30 29 29 30 30 31 31 31 32 32 32 31 30 28 26 24 21 18 18 20 21 20 20 22 24 23 19 17 16 16 18 19 18 17 19 22 23 24 25 27 32 37 37 34 32 32 32 33 36 35 30 27 28 29 28 27 25 23
25 27 29 30 31 30 28 27 27 28 28 27 28 28 27 27 28 28 29 30 31 31 31 30 29 29 28 28 27 25 24 22 20 18 19 21 21 20 19 20 22 21 19 17 16 15 17 19 19 18 19 20 22 25 27 29 30 33 34 33 31 32 34 32 31 31 30 28 28 30 29 27 24 23
21 23 25 26 25 23 22 23 22 22 23 24 25 25 25 25 26 26 27 30 32 33 33 33 32 30 28 27 26 24 23 23 20 18 19 20 21 19 19 20 21 20 19 19 17 16 16 18 19 21 21 21 21 23 26 30 32 30 29 28 28 31 35 33 29 29 29 28 28 29 30 28 24 22
18 21 22 23 22 20 19 20 20 20 20 21 23 23 23 24 24 25 27 29 30 32 33 34 33 31 29 28 27 25 25 24 21 19 19 20 20 19 19 20 21 19 19 19 18 17 17 18 20 22 24 23 22 22 23 28 32 28 22 22 26 30 33 32 30 29 29 27 26 27 29 30 27 22
19 20 21 21 21 19 19 20 20 20 20 21 22 23 23 24 24 25 27 29 30 31 32 32 31 30 29 29 28 27 27 25 22 20 19 19 20 20 20 21 21 19 18 19 18 17 17 18 19 21 23 23 23 23 22 19 20 19 17 20 25 28 29 31 31 30 28 27 26 24 25 29 29 27
20 20 20 21 21 20 21 22 22 22 22 22 22 23 23 24 24 25 27 28 29 29 30 30 30 30 30 30 30 29 27 24 22 21 20 19 20 21 20 20 21 19 18 18 17 16 16 16 15 15 17 16 13 14 16 16 15 16 18 20 23 26 29 32 32 30 27 26 25 23 23 25 29 31
17 15 14 14 14 14 14 15 15 15 15 16 17 19 20 22 23 23 24 25 25 26 27 28 28 29 29 29 29 28 26 24 22 21 20 19 19 20 20 20 20 19 18 17 15 15 15 14 12 11 11 9 6 6 15 25 26 18 11 11 21 30 32 31 31 30 27 25 24 24 23 24 28 31
9 8 8 8 9 9 10 10 11 12 12 12 13 14 15 17 18 19 20 20 21 23 24 25 26 27 27 26 26 26 25 24 22 21 20 19 19 20 20 20 20 19 17 16 15 14 14 13 12 11 9 7 5 5 12 25 31 25 17 15 22 29 31 29 28 30 29 26 25 25 25 25 27 29
8 9 9 10 10 11 12 13 13 14 15 15 16 16 17 18 18 18 18 19 20 21 21 22 24 25 25 25 25 25 24 23 22 21 20 19 20 20 20 20 20 18 17 16 15 14 14 14 13 12 11 11 11 11 14 22 32 38 35 27 21 21 25 27 27 29 29 28 27 28 30 29 27 26
10 10 11 11 12 12 13 14 15 15 16 16 17 17 18 19 20 20 20 20 20 20 21 21 22 22 23 23 23 23 23 23 21 20 19 19 19 19 20 20 19 17 16 15 13 13 15 15 13 12 13 14 16 18 22 26 31 37 37 31 21 18 21 23 25 27 29 28 27 28 29 29 27 25
10 11 12 13 13 14 15 15 16 16 16 16 16 17 17 17 18 19 19 19 19 20 21 21 21 21 21 22 22 22 22 22 21 20 20 19 19 19 19 18 18 16 15 14 14 15 15 15 14 13 13 14 15 17 17 16 20 28 33 33 28 23 21 20 21 23 26 27 26 25 24 24 24 23
10 11 11 12 13 13 14 14 15 15 16 16 16 17 17 17 17 18 18 18 18 19 19 20 20 20 20 20 21 21 21 21 21 20 20 19 19 19 19 18 17 16 15 16 17 16 15 15 15 13 12 12 13 12 11 10 15 24 32 34 32 28 24 21 20 20 20 21 20 19 20 20 18 15
9 10 10 11 11 12 12 13 14 14 15 15 16 16 17 17 18 18 18 18 18 18 18 18 18 18 19 19 19 19 19 20 20 20 19 19 19 19 19 18 17 17 16 17 17 17 16 16 14 11 10 11 11 11 12 15 19 23 28 32 33 31 27 24 23 21 17 13 12 14 17 18 15 13
10 10 10 11 11 12 12 13 14 14 15 16 16 16 16 17 18 18 18 18 18 17 17 18 17 17 18 18 19 19 19 20 20 20 20 19 19 18 17 17 16 16 16 16 17 17 17 15 12 10 10 12 12 12 14 17 19 22 25 28 30 31 30 28 26 24 19 13 13 14 17 17 16 17
11 11 11 12 13 13 14 15 15 16 16 17 17 17 17 17 18 18 18 18 18 18 17 18 18 18 18 18 18 19 20 20 20 20 20 19 18 17 16 15 16 16 16 15 16 17 17 15 12 9 10 12 12 13 15 17 19 22 25 26 26 27 28 28 27 26 23 18 17 18 18 19 19 17
Wind_Direction
176 178 178 178 178 178 181 187 193 200 209 216 221 228 215 196 190 192 264 246 234 238 249 251 271 300 310 315 317 320 323 325 328 331 334 336 338 340 345 350 351 352 352 345 340 341 339 338 336 334 333 333 331 329 328 326 324 322 322 322 321 319 318 316 315 315 316 315 313 312 311 310 311 311
185 186 185 185 186 186 190 197 203 211 222 230 232 235 232 222 211 201 200 246 236 235 250 256 266 290 301 306 310 314 319 322 325 329 333 335 337 339 343 349 350 353 354 348 341 340 338 336 335 334 333 332 331 330 328 326 324 322 322 322 320 318 317 316 315 315 314 314 312 312 312 311 311 310
196 198 195 195 196 196 200 206 214 223 230 237 239 238 238 235 230 220 208 226 242 232 240 262 274 286 296 300 305 311 316 320 323 327 331 333 336 338 341 347 350 352 354 348 340 337 336 336 335 334 334 333 331 330 327 325 323 322 322 322 320 319 318 316 315 314 314 314 313 313 312 311 310 309
205 211 209 207 207 207 211 215 222 231 238 241 242 243 242 238 237 233 221 225 247 249 251 268 278 286 291 296 304 310 314 319 322 325 330 333 335 337 340 346 349 350 352 347 337 335 335 334 335 334 334 333 331 329 327 325 324 322 322 322 321 321 321 319 317 316 315 314 313 312 311 310 310 307
209 217 219 218 216 216 220 226 231 238 242 245 245 244 245 243 241 239 231 233 250 262 266 270 278 284 289 295 305 311 313 318 322 325 330 333 336 338 339 344 348 349 351 345 334 334 334 332 335 335 333 332 330 330 328 326 325 323 322 323 323 323 322 320 318 317 316 314 313 312 311 310 309 307
212 217 222 225 224 222 227 233 239 243 244 246 247 247 247 247 246 244 239 239 250 266 274 275 278 282 287 295 305 311 313 318 321 324 329 332 336 339 340 343 346 347 349 341 332 335 333 331 334 333 332 333 332 332 330 327 326 324 323 324 323 323 322 321 319 317 316 315 314 312 310 309 308 307
214 218 223 227 229 229 234 238 241 244 246 247 249 250 251 250 249 246 244 245 251 267 279 281 280 282 287 296 304 310 313 317 320 323 327 330 334 338 339 341 342 345 345 336 332 337 334 330 332 334 335 336 335 334 331 328 327 325 324 324 323 323 322 320 319 318 317 316 314 311 309 308 306 305
219 223 226 230 233 236 239 243 244 245 247 249 251 253 253 252 251 249 248 251 256 265 275 280 281 284 290 297 305 311 314 316 319 322 325 328 331 335 337 338 338 341 340 331 332 339 337 331 332 337 340 340 338 338 335 329 327 326 325 324 323 322 321 319 319 319 317 315 312 310 309 309 309 307
226 228 231 235 239 241 242 245 247 248 250 252 254 255 254 253 251 250 252 255 258 263 270 277 283 287 293 300 306 312 315 316 318 321 324 327 329 330 332 334 336 337 334 330 332 338 337 333 333 339 343 342 341 343 338 330 327 326 325 323 322 321 320 319 320 320 318 315 313 312 311 311 311 311
231 234 237 240 243 245 247 249 251 252 253 254 256 257 256 254 252 252 253 255 258 263 268 275 282 287 293 300 305 311 316 318 320 322 324 324 325 328 330 331 333 333 329 327 332 338 337 333 333 339 343 342 342 344 339 332 328 327 325 324 323 322 321 321 321 321 319 317 316 315 315 314 312 313
235 238 240 243 246 248 251 254 255 256 256 256 257 258 257 256 254 253 254 255 258 263 269 273 278 284 291 295 300 307 315 319 322 325 323 320 321 326 329 327 328 331 328 324 329 336 335 332 333 338 341 342 342 342 339 335 332 330 327 324 324 323 322 322 322 321 320 319 317 315 315 315 315 314
238 241 243 245 248 251 253 256 258 258 258 257 258 258 257 255 255 254 254 255 258 262 267 272 276 283 287 290 297 305 313 318 321 324 320 315 317 322 323 320 323 329 328 324 325 331 333 331 331 335 338 341 341 341 339 337 336 334 328 323 324 323 323 323 323 322 322 320 319 317 315 315 314 312
241 243 245 247 249 251 253 256 258 258 258 258 258 258 257 255 254 254 253 254 257 260 264 268 273 279 282 287 295 301 306 312 313 312 311 310 314 317 315 313 319 326 325 323 324 328 331 330 329 332 336 339 341 340 338 338 338 334 325 323 324 323 323 324 323 323 323 321 320 319 318 317 316 314
245 247 249 250 250 251 253 254 256 257 257 258 259 260 259 257 255 253 252 253 255 257 259 264 268 273 276 280 286 293 299 306 304 301 306 311 313 314 312 313 318 323 323 322 322 324 327 327 326 328 332 336 340 339 337 338 336 329 322 323 324 323 324 325 324 324 323 322 321 320 319 317 316 314
249 251 251 250 249 250 252 253 254 256 257 258 259 260 260 259 256 254 253 254 255 255 257 262 264 264 269 276 281 286 293 298 293 291 300 307 306 306 308 309 310 316 320 321 320 319 323 324 322 324 329 332 337 338 336 336 334 326 321 323 323 323 325 325 325 325 324 323 322 320 319 317 315 314
252 252 251 250 249 249 252 254 255 256 256 257 258 261 262 261 259 257 256 256 257 256 257 261 261 259 264 272 275 278 286 288 282 285 294 297 291 288 290 291 296 306 315 318 316 314 317 321 320 320 325 328 332 336 335 334 333 326 322 322 323 324 325 325 325 325 324 323 322 321 320 318 316 315
252 251 250 249 248 249 251 253 255 256 257 256 256 257 258 257 257 256 256 258 260 260 259 259 261 262 263 267 270 274 278 276 275 283 289 285 276 276 279 282 291 301 308 313 312 307 310 319 318 316 321 324 327 333 335 334 332 327 322 321 322 323 324 325 325 325 324 323 323 322 321 320 318 317
252 251 250 249 249 250 251 253 255 257 258 258 257 255 253 253 251 248 247 250 254 257 257 256 261 265 264 263 269 273 269 269 276 283 282 275 271 277 282 285 291 299 305 311 308 301 305 316 316 314 319 321 320 328 335 334 332 330 324 320 321 323 324 324 324 324 325 324 323 323 322 321 319 318
251 250 250 250 250 251 253 254 256 258 261 261 260 258 256 256 254 250 249 250 251 252 254 257 263 267 265 262 267 271 269 272 276 274 269 268 276 285 290 291 294 299 304 308 301 292 300 312 314 312 318 320 316 322 333 334 333 332 325 320 322 324 323 324 325 325 326 325 324 323 322 320 319 318
250 250 250 251 251 252 254 255 256 259 262 262 261 260 260 260 258 256 256 256 255 253 254 258 262 264 263 262 265 267 267 271 269 262 262 272 283 291 295 295 296 299 301 306 300 287 294 307 314 312 316 318 314 317 330 335 334 331 326 324 327 326 324 324 326 326 326 326 324 322 321 320 319 318
250 250 251 252 253 254 256 256 258 259 260 262 262 261 261 262 261 261 262 260 258 256 256 258 260 260 259 258 257 256 255 256 254 256 268 280 286 291 293 293 294 293 295 304 302 281 286 305 315 312 315 317 313 315 326 334 332 329 326 327 331 331 328 325 325 326 327 326 324 322 321 320 320 320
251 251 253 254 255 256 258 259 260 259 258 260 262 262 262 261 262 265 267 264 262 260 259 258 257 255 253 249 248 250 248 243 242 253 272 282 285 285 281 280 288 293 296 303 298 271 284 305 315 316 318 318 314 315 323 328 327 327 327 328 332 334 332 327 325 326 326 326 325 323 322 322 322 322
253 253 254 255 256 258 259 260 261 261 259 258 260 262 262 260 263 269 271 268 267 265 261 258 256 252 249 245 245 247 246 243 247 261 275 280 279 279 276 273 280 291 299 302 290 283 295 306 313 321 325 320 316 316 316 319 322 324 326 327 329 332 333 329 327 327 325 325 326 324 323 323 323 323
256 257 258 258 259 260 261 261 262 264 262 259 260 261 257 257 265 271 272 269 269 268 264 261 258 254 251 246 243 244 245 248 253 264 274 277 275 275 274 269 263 263 271 285 292 294 300 303 305 312 314 297 300 308 310 313 318 321 324 325 326 328 330 329 329 329 326 325 325 324 323 324 324 323
259 261 262 263 264 263 264 264 264 265 263 260 259 260 261 263 268 271 271 271 270 266 264 262 259 254 250 246 245 245 247 248 252 260 272 278 277 274 271 267 262 261 271 287 295 291 291 294 298 305 304 284 281 297 306 310 314 316 320 322 322 324 326 327 328 329 328 327 327 325 323 322 322 322
261 263 266 268 269 269 269 270 269 268 267 262 259 260 264 267 268 267 268 269 266 261 259 258 254 251 247 245 245 246 246 246 249 260 273 278 276 272 269 267 265 267 277 290 293 283 283 289 294 298 298 294 291 293 300 306 310 315 319 319 320 324 326 326 326 326 328 329 327 324 321 320 320 320
264 267 269 271 273 274 275 275 274 273 271 267 263 263 263 262 261 261 262 261 258 256 254 251 250 249 247 245 245 247 246 245 249 261 273 275 271 268 266 266 267 270 279 288 288 283 282 284 288 290 291 292 296 296 295 299 304 311 315 316 319 325 327 326 324 324 326 327 326 323 321 320 321 321
267 270 272 275 277 278 278 278 278 276 273 269 265 265 264 262 260 258 256 254 252 250 248 246 247 248 246 245 247 249 248 246 251 262 273 276 272 267 265 268 269 271 278 284 285 285 284 282 286 290 290 287 288 291 293 296 299 305 311 313 317 323 326 325 323 323 325 326 325 323 321 321 322 323
269 271 274 277 279 279 280 280 278 274 271 267 264 263 263 262 259 256 255 254 251 248 245 244 245 247 247 248 250 250 248 246 252 264 274 277 273 268 268 271 270 271 276 281 282 284 285 286 289 292 291 284 280 281 286 292 295 299 305 309 313 318 323 324 322 322 324 325 324 321 319 319 319 320
270 272 273 275 275 275 276 276 274 272 272 270 267 265 263 260 257 255 256 255 252 250 248 248 249 252 252 252 251 248 245 247 256 267 275 276 271 268 270 272 272 273 274 276 279 283 286 292 296 295 290 285 281 281 284 288 291 295 301 305 308 312 318 321 321 321 323 323 320 317 316 316 315 315
274 276 277 277 276 276 275 274 273 273 273 271 268 265 261 257 254 253 254 256 256 255 254 253 255 256 255 253 250 247 246 251 261 269 272 272 270 268 269 271 273 274 274 273 278 285 292 297 301 298 293 289 286 285 286 286 287 291 298 304 305 305 309 315 318 320 322 321 317 315 315 314 315 314
277 278 278 279 280 281 282 281 277 274 272 270 268 265 262 258 256 254 253 254 257 260 260 260 259 257 254 251 250 249 250 257 264 268 268 270 270 267 265 267 271 275 277 277 279 284 291 297 301 302 298 292 289 292 292 287 284 285 292 301 307 306 308 312 315 318 321 320 317 315 314 313 315 315
282 280 281 282 285 288 290 288 285 281 277 274 272 270 267 264 260 257 254 253 256 259 261 262 262 259 256 254 252 251 255 261 265 267 266 267 267 265 262 263 267 274 280 284 287 289 291 295 299 302 300 295 294 297 294 288 285 286 291 299 306 307 310 313 315 316 319 320 317 315 313 312 314 315
278 280 282 285 287 290 291 289 287 286 283 280 277 274 272 268 265 261 258 256 257 258 259 260 261 260 257 256 254 254 258 263 264 264 264 263 262 259 259 261 266 273 279 285 292 298 299 302 305 304 304 304 303 302 297 288 284 286 293 300 302 303 307 313 316 317 318 318 316 314 312 310 312 314
268 270 272 276 279 281 282 283 284 283 281 279 278 278 276 273 270 266 265 265 264 263 261 260 260 259 257 257 257 258 259 261 262 260 258 257 256 255 257 260 266 271 276 281 291 300 304 310 315 314 314 316 313 311 313 304 286 283 293 302 303 304 307 312 315 317 317 317 316 313 310 308 310 314
274 273 272 273 275 274 274 276 279 281 280 279 279 279 279 278 276 273 275 276 274 270 268 266 264 263 261 259 259 259 258 257 257 255 252 250 253 255 257 261 266 271 275 280 290 300 304 309 317 316 314 318 318 312 316 315 299 287 290 299 307 310 310 312 316 316 316 316 316 312 309 307 307 311
281 285 287 288 289 287 286 290 296 299 299 297 295 291 288 287 286 285 286 285 280 276 274 273 270 268 266 263 261 259 257 255 253 250 250 250 251 253 256 261 265 270 275 279 288 299 302 305 312 309 301 309 319 299 302 310 311 301 284 298 313 314 312 313 315 314 315 316 314 310 308 306 304 308
305 318 329 335 337 336 334 333 334 332 330 327 323 317 310 305 301 298 296 292 288 284 280 275 272 271 269 266 262 259 257 254 249 248 249 249 249 250 254 260 264 269 274 280 287 296 301 301 302 298 286 285 292 290 305 314 314 308 303 308 310 310 312 312 311 311 314 316 313 309 308 305 302 305
324 331 334 336 335 333 331 331 330 328 325 324 323 321 318 315 312 308 305 300 297 294 289 282 279 276 272 269 265 260 256 251 247 247 248 249 249 251 253 258 262 267 273 279 285 294 299 297 297 295 285 276 278 286 297 302 301 301 308 314 310 304 309 311 310 311 313 314 314 312 312 312 310 310
313 319 322 324 324 323 322 323 323 322 321 320 319 317 315 313 311 309 308 306 304 302 299 294 289 283 278 273 268 262 256 252 249 250 252 251 251 252 253 255 260 266 271 275 279 287 294 297 301 302 293 285 285 291 293 293 291 296 307 318 321 312 309 310 312 312 312 313 315 314 312 315 318 320
308 311 313 314 315 316 317 319 319 320 320 319 318 317 315 314 312 310 310 308 306 304 303 300 296 290 284 278 272 263 257 254 253 254 254 252 251 251 251 252 257 262 265 269 274 281 291 301 306 303 294 291 295 297 297 294 293 298 307 317 326 328 324 319 316 312 309 311 314 312 311 315 317 319
308 308 310 311 313 315 319 320 321 323 323 323 322 322 321 318 316 314 312 308 305 303 304 304 302 296 290 284 276 267 259 257 257 257 256 253 250 248 247 248 253 259 263 269 277 285 296 304 307 304 299 302 306 302 290 285 292 299 305 314 324 333 337 336 331 325 317 315 315 313 316 322 322 319
314 315 318 318 319 322 323 324 324 325 326 327 327 327 325 322 320 319 316 312 309 306 305 306 306 303 298 293 286 276 268 266 265 263 260 257 252 249 249 253 259 266 272 277 283 291 299 306 310 309 306 309 310 296 282 285 293 298 303 310 319 329 337 341 344 344 344 344 338 326 322 325 326 321
323 325 326 325 327 328 327 326 327 327 327 328 328 327 327 324 321 319 316 313 312 309 307 306 307 306 304 302 296 289 283 279 276 271 266 262 257 254 256 262 267 272 276 279 285 294 302 307 310 308 306 311 311 297 288 292 297 300 303 308 315 324 332 338 343 347 354 9 12 353 339 336 334 327
322 323 325 324 325 326 325 325 325 324 324 325 324 324 325 323 320 319 316 311 309 307 306 306 306 306 307 306 300 295 291 288 282 275 269 264 261 259 261 265 269 273 276 280 287 296 304 307 307 305 308 314 313 305 300 299 299 301 305 308 314 324 331 334 337 339 343 356 8 6 358 355 353 349